This demonstration page uses our WeatherBlox Daily Observations layout. Learn more.

Left ArrowRight Arrow

39.92423, -83.80882

Hourly Observations for May 26, 2022

Temp ( °F °C ) Dew Point ( °F °C ) Humidity (%) Winds ( mph kmh ) Pressure ( in mb ) Visibility ( mi km ) Precip ( " mm )
12:56 am 00:56 Cloudy N/A N/A N/A SSE 6 9 N/A 10 16 0.00 0.00
1:56 am 01:56 Mostly Cloudy 72 22 N/A N/A S 9 15 29.96 1015 10 16 0.00 0.00
2:56 am 02:56 Partly Cloudy 70 21.1 69 20.6 97 97 S 9 15 29.97 1015 10 16 0.00 0.00
3:56 am 03:56 Mostly Cloudy 69 20.6 68 20 96 96 S 7 11 29.96 1015 10 16 0.00 0.00
4:56 am 04:56 Cloudy 69 20.6 67 19.4 93 93 S 9 15 29.96 1014 10 16 0.00 0.00
5:56 am 05:56 Cloudy 69 20.6 69 20.6 100 100 S 8 13 29.96 1015 10 16 0.00 0.00
6:56 am 06:56 Cloudy 68 20 N/A N/A SSE 9 15 29.97 1015 10 16 0.00 0.00
7:56 am 07:56 Cloudy 68 20 68 20 100 100 S 14 22 29.98 1015 10 16 0.00 0.00
8:18 am 08:18 Cloudy 68 20 68 20 100 100 SSE 10 17 29.97 1015 10 16 0.00 0.00
8:35 am 08:35 Cloudy 68 20 N/A N/A S 9 15 29.97 1015 10 16 0.00 0.00
8:45 am 08:45 Cloudy 66 19 N/A N/A S 12 19 29.98 1015 10 16 0.00 0.00
8:56 am 08:56 Cloudy with Light Rain 66 19 N/A N/A S 13 20 29.98 1015 10 16 0.00 0.00
9:33 am 09:33 Cloudy with Light Rain 66 19 N/A N/A S 12 19 29.97 1015 10 16 0.00 0.00
9:56 am 09:56 Cloudy with Light Rain 68 20 N/A N/A S 16 26 29.98 1015 10 16 0.00 0.00
10:56 am 10:56 Cloudy with Light Rain N/A N/A N/A SSE 16 26 N/A 10 16 0.00 0.00
11:09 am 11:09 Cloudy with Light Rain N/A N/A N/A S 10 17 N/A 6 10 0.00 0.00
11:39 am 11:39 Cloudy with Light Rain N/A N/A N/A SSE 14 22 N/A 10 16 0.00 0.00
11:56 am 11:56 Cloudy with Light Rain N/A N/A N/A SSE 16 26 N/A 10 16 0.00 0.00
12:56 pm 12:56 Cloudy 68 20 N/A N/A S 9 15 29.92 1013 10 16 0.00 0.00
1:10 pm 13:10 Cloudy 70 21 N/A N/A SSE 14 22 29.91 1013 10 16 0.00 0.00
1:26 pm 13:26 Cloudy 70 21 N/A N/A S 12 19 29.90 1012 10 16 0.00 0.00
1:56 pm 13:56 Cloudy 71 21.7 71 21.7 100 100 S 10 17 29.91 1013 10 16 0.00 0.00
2:04 pm 14:04 Cloudy 72 22 72 22 100 100 S 10 17 29.87 1012 10 16 0.00 0.00
2:56 pm 14:56 Cloudy 74 23.3 71 21.7 91 91 S 13 20 29.87 1012 10 16 0.00 0.00
3:35 pm 15:35 Cloudy 70 21 N/A N/A S 9 15 29.86 1011 10 16 0.00 0.00
3:56 pm 15:56 Cloudy with Nearby Thunderstorms 70 21 N/A N/A W 20 31 29.89 1012 6 10 0.00 0.00
4:05 pm 16:05 Cloudy with Nearby Thunderstorms 63 17 N/A N/A NW 9 15 29.89 1012 3 5 0.00 0.00
4:14 pm 16:14 Cloudy with Heavy Rain 63 17 N/A N/A WNW 13 20 29.89 1012 3 5 0.00 0.00
4:21 pm 16:21 Cloudy with Rain N/A N/A N/A WNW 10 17 N/A 5 8 0.00 0.00
4:51 pm 16:51 Cloudy with Light Rain N/A N/A N/A NW 9 15 N/A 10 16 0.00 0.00
4:56 pm 16:56 Cloudy N/A N/A N/A NNW 7 11 N/A 10 16 0.00 0.00
5:18 pm 17:18 Cloudy 64 18 N/A N/A NNW 7 11 29.88 1012 10 16 0.00 0.00
5:46 pm 17:46 Mostly Cloudy 64 18 N/A N/A N 5 7 29.87 1012 10 16 0.00 0.00
5:54 pm 17:54 Mostly Cloudy 64 18 N/A N/A N 5 7 29.87 1012 10 16 0.00 0.00
5:56 pm 17:56 Mostly Cloudy 64 18 N/A N/A N 3 6 29.88 1012 10 16 0.00 0.00
6:56 pm 18:56 Cloudy with Rain 64 18 N/A N/A E 7 11 29.86 1011 8 13 0.00 0.00
7:56 pm 19:56 Mostly Cloudy with Light Rain N/A N/A N/A E 7 11 N/A 10 16 0.00 0.00
8:51 pm 20:51 Cloudy N/A N/A N/A SE 8 13 N/A 10 16 0.00 0.00
8:56 pm 20:56 Cloudy N/A N/A N/A SE 10 17 N/A 10 16 0.00 0.00
9:19 pm 21:19 Cloudy N/A N/A N/A ESE 15 24 N/A 10 16 0.00 0.00
9:28 pm 21:28 Cloudy with Light Rain N/A N/A N/A SE 10 17 N/A 10 16 0.00 0.00
9:40 pm 21:40 Cloudy with Light Rain N/A N/A N/A SSE 10 17 N/A 10 16 0.00 0.00
9:56 pm 21:56 Cloudy N/A N/A N/A SSE 10 17 N/A 10 16 0.00 0.00
10:16 pm 22:16 Mostly Cloudy N/A N/A N/A SSE 10 17 N/A 10 16 0.00 0.00
10:56 pm 22:56 Cloudy 64 18 N/A N/A SSE 14 22 29.83 1010 10 16 0.00 0.00
11:56 pm 23:56 Mostly Cloudy 63 17 N/A N/A SSE 10 17 29.82 1010 10 16 0.00 0.00

Powered by AerisWeather